Location: Twillingate Astronomical Observatory
(49.6173°N, 54.7580°W)
Time: 06:03:39
(UTC-02:-30)

Amateur Radio Satellites - All Passes

Search period start: 28 May 2017 05:33
Search period end: 29 May 2017 05:33
Location: Twillingate Astronomical Observatory, 49.6173°N, 54.7580°W

Satellite Date Start Highest point End Downlink Frequencies (MHz)
Time Altitude Azimuth
PCSat 28 May 05:44:41 05:48:35 20° 253° (WSW) 05:52:28 145.827
O/OREOS (USA 219) 28 May 05:46:47 05:50:48 29° 309° (NW) 05:54:48 437.305
KKS-1 28 May 05:47:25 05:51:15 28° 265° (W) 05:55:07 437.445
CUBESAT XI-V 28 May 05:55:47 05:59:35 24° 268° (W) 06:03:25 437.345
XW-2D 28 May 06:10:39 06:12:14 12° 88° (E) 06:13:48 145.860 - 145.880
STARS 28 May 06:13:43 06:17:38 33° 263° (W) 06:21:36 437.465
SO-50 28 May 06:15:05 06:19:32 52° 44° (NE) 06:23:57 436.795
STRAND 1 28 May 06:18:07 06:22:04 23° 59° (ENE) 06:26:03 437.568
XW-2B 28 May 06:18:12 06:20:19 14° 89° (E) 06:22:25 145.730 - 145.750
NUDT-PHONESAT 28 May 06:24:03 06:25:47 13° 88° (E) 06:27:30 437.300
DOVE 4 28 May 06:26:14 06:29:57 31° 96° (E) 06:33:46 437.250
XW-2F 28 May 06:29:12 06:31:53 18° 91° (E) 06:34:32 145.980 - 146.000
AO-7 28 May 06:29:29 06:37:15 45° 304° (NW) 06:45:01 .
XW-2C 28 May 06:31:21 06:34:13 20° 92° (E) 06:37:04 145.795 - 145.815
KAITUO 1B 28 May 06:34:12 06:36:43 17° 91° (E) 06:39:13 145.475/437.950
ITAMSAT 1 28 May 06:34:45 06:38:10 18° 305° (NW) 06:41:35 435.822/435.867
BEESAT 2 28 May 06:38:32 06:42:28 62° 125° (SE) 06:46:29 435.950
AO-85 28 May 06:47:19 06:50:42 25° 324° (NW) 06:54:02 145.980
BEESAT 3 28 May 06:55:20 06:59:10 43° 317° (NW) 07:03:03 437.485
CUTE-I 28 May 07:00:36 07:05:31 36° 96° (E) 07:10:26 437.470
LilacSat-2 28 May 07:10:41 07:14:31 53° 100° (E) 07:18:17 437.200
RS-15 28 May 07:21:16 07:32:41 40° 1° (N) 07:43:54 29.354- 29.394
XW-2D 28 May 07:43:02 07:46:54 69° 286° (WNW) 07:50:42 145.860 - 145.880
CUTE 1.7 + AOD 2 28 May 07:43:23 07:46:34 20° 91° (E) 07:49:43 437.475
XW-2B 28 May 07:51:04 07:54:53 58° 287° (WNW) 07:58:39 145.730 - 145.750
M-CUBED/EXP-1 PRIME 28 May 07:51:18 07:55:10 42° 64° (ENE) 07:58:45 437.505
NO-84 28 May 07:55:31 07:58:00 15° 128° (SE) 08:00:26 435.350 FM
STRAND 1 28 May 07:55:49 08:00:52 62° 258° (WSW) 08:05:57 437.568
SO-50 28 May 07:55:58 07:59:46 27° 243° (WSW) 08:03:33 436.795
NUDT-PHONESAT 28 May 07:56:21 08:00:07 63° 286° (WNW) 08:03:50 437.300
XW-2A 28 May 08:00:57 08:03:43 22° 94° (E) 08:06:27 145.665 - 145.685
XW-2F 28 May 08:02:34 08:06:15 44° 289° (WNW) 08:09:55 145.980 - 146.000
DOVE 4 28 May 08:04:03 08:07:39 29° 294° (WNW) 08:11:20 437.250
XW-2C 28 May 08:04:57 08:08:36 41° 290° (WNW) 08:12:13 145.795 - 145.815
KAITUO 1B 28 May 08:07:19 08:10:59 47° 289° (WNW) 08:14:38 145.475/437.950
BEESAT 2 28 May 08:17:14 08:20:34 24° 326° (NW) 08:23:57 435.950
HO-68 28 May 08:17:25 08:24:21 47° 99° (E) 08:31:13 435.675
AO-7 28 May 08:23:37 08:27:59 16° 328° (NNW) 08:32:23 .
SEEDS 28 May 08:28:55 08:32:52 36° 97° (E) 08:36:45 437.485
AO-85 28 May 08:32:00 08:32:27 10° 348° (NNW) 08:32:54 145.980
BEESAT 3 28 May 08:35:42 08:37:45 13° 339° (NNW) 08:39:49 437.485
CUBEBUG 2 28 May 08:37:43 08:42:00 37° 97° (E) 08:46:21 437.445
CUTE-I 28 May 08:40:40 08:45:36 39° 295° (WNW) 08:50:31 437.470
UWE-3 28 May 08:44:41 08:48:40 28° 94° (E) 08:52:41 435.000/436.395/437.385
LilacSat-2 28 May 08:45:52 08:48:24 17° 299° (WNW) 08:50:57 437.200
Oscar 11 28 May 09:10:46 09:14:09 21° 92° (E) 09:17:30 .
CUTE 1.7 + AOD 2 28 May 09:18:32 09:22:40 48° 290° (WNW) 09:26:44 437.475
AAUSAT CUBESAT 2 28 May 09:23:21 09:27:30 66° 102° (ESE) 09:31:35 437.432
TIGRISAT 28 May 09:24:41 09:28:24 29° 65° (ENE) 09:32:12 435.000
M-CUBED/EXP-1 PRIME 28 May 09:26:33 09:29:43 21° 259° (W) 09:32:45 437.505
NO-84 28 May 09:30:41 09:35:01 65° 146° (SE) 09:39:11 435.350 FM
PRISM 28 May 09:32:12 09:36:09 45° 69° (ENE) 09:40:05 437.425
FO-29 28 May 09:32:39 09:37:31 43° 65° (ENE) 09:42:41 435.910
XW-2A 28 May 09:33:28 09:36:30 29° 292° (WNW) 09:39:31 145.665 - 145.685
RS-15 28 May 09:36:13 09:48:23 57° 33° (NNE) 10:00:03 29.354- 29.394
AO-73 28 May 09:38:49 09:43:16 50° 99° (E) 09:47:42 145.935
YUBILEINY 28 May 09:40:57 09:43:43 12° 39° (NE) 09:46:27 435.215
ZACube-1 28 May 09:53:49 09:58:23 76° 102° (ESE) 10:02:59 437.345
UNISAT 6 28 May 09:56:17 10:00:32 61° 72° (ENE) 10:04:53 437.425
BEESAT 2 28 May 09:58:54 09:59:44 10° 349° (N) 10:00:33 435.950
SEEDS 28 May 10:04:53 10:08:24 26° 295° (WNW) 10:11:55 437.485
HO-68 28 May 10:05:19 10:12:04 45° 299° (WNW) 10:18:47 435.675
AO-85 28 May 10:13:38 10:14:41 11° 14° (NNE) 10:15:43 145.980
AIST 2D 28 May 10:13:54 10:15:21 12° 60° (ENE) 10:16:49 435.315
CUBEBUG 2 28 May 10:14:32 10:18:32 30° 294° (WNW) 10:22:36 437.445
UWE-3 28 May 10:20:56 10:25:12 39° 292° (WNW) 10:29:31 435.000/436.395/437.385
EO-88 28 May 10:38:27 10:41:50 33° 97° (E) 10:45:11 145.990 - 145.960
Oscar 11 28 May 10:46:20 10:50:31 46° 290° (WNW) 10:54:41 .
NANOSAT C BR1 28 May 10:48:48 10:51:36 18° 60° (ENE) 10:54:25 145.865
POLYITAN 1 28 May 10:54:35 10:57:47 21° 62° (ENE) 11:01:00 437.675
DUCHIFAT 1 28 May 10:58:16 11:01:16 19° 61° (ENE) 11:04:17 145.980
AAUSAT CUBESAT 2 28 May 10:59:57 11:02:28 16° 300° (WNW) 11:04:59 437.432
TIGRISAT 28 May 11:01:05 11:05:01 34° 264° (W) 11:09:02 435.000
DELFI C3 28 May 11:01:17 11:05:15 84° 106° (ESE) 11:09:10 145.870
QB50P2 28 May 11:02:56 11:06:29 27° 64° (ENE) 11:10:03 145.880/145.840
PRISM 28 May 11:08:34 11:11:39 20° 267° (W) 11:14:45 437.425
NO-84 28 May 11:08:37 11:12:48 47° 345° (NNW) 11:16:45 435.350 FM
AO-73 28 May 11:15:37 11:19:12 23° 297° (WNW) 11:22:49 145.935
LO-87 28 May 11:16:43 11:18:37 14° 90° (E) 11:20:30 145.935 - 145.965
FO-29 28 May 11:18:21 11:22:52 30° 267° (W) 11:27:37 435.910
ESTCUBE 1 28 May 11:19:49 11:21:07 11° 86° (E) 11:22:26 437.505/2401.250
ZACube-1 28 May 11:31:16 11:34:09 17° 301° (WNW) 11:37:01 437.345
UNISAT 6 28 May 11:34:57 11:37:41 16° 271° (W) 11:40:29 437.425
YUBILEINY 28 May 11:35:22 11:43:40 42° 67° (ENE) 11:51:55 435.215
BEESAT 2 28 May 11:38:07 11:39:18 11° 13° (NNE) 11:40:30 435.950
EO-79 28 May 11:38:45 11:42:50 54° 71° (ENE) 11:46:58 145.935-145.965
AIST 2D 28 May 11:44:33 11:48:04 67° 259° (WSW) 11:51:38 435.315
RS-15 28 May 11:49:22 12:01:24 66° 241° (WSW) 12:12:51 29.354- 29.394
AO-85 28 May 11:52:49 11:56:20 29° 38° (NE) 11:59:57 145.980
BEESAT 3 28 May 11:53:33 11:56:17 17° 27° (NNE) 11:58:59 437.485
HO-68 28 May 11:55:05 11:58:04 13° 322° (NW) 12:01:02 435.675
Oscar 19 28 May 11:55:07 11:58:01 15° 53° (NE) 12:00:56 437.125/150
AO-7 28 May 12:03:43 12:06:07 11° 24° (NNE) 12:08:32 .
EO-88 28 May 12:12:26 12:15:22 23° 295° (WNW) 12:18:17 145.990 - 145.960
NANOSAT C BR1 28 May 12:22:47 12:26:54 59° 258° (WSW) 12:31:04 145.865
POLYITAN 1 28 May 12:29:15 12:33:18 47° 261° (W) 12:37:24 437.675
DUCHIFAT 1 28 May 12:32:31 12:36:35 52° 260° (W) 12:40:42 145.980
O/OREOS (USA 219) 28 May 12:33:26 12:37:21 27° 50° (NE) 12:41:11 437.305
DELFI C3 28 May 12:37:52 12:39:25 12° 302° (WNW) 12:41:00 145.870
QB50P2 28 May 12:38:17 12:42:10 35° 263° (W) 12:46:04 145.880/145.840
BUGSAT 1 28 May 12:43:04 12:47:02 68° 74° (ENE) 12:51:03 437.445
NO-84 28 May 12:47:03 12:50:59 39° 6° (N) 12:54:40 435.350 FM
LO-87 28 May 12:48:54 12:52:21 50° 288° (WNW) 12:55:49 145.935 - 145.965
ESTCUBE 1 28 May 12:54:06 12:58:38 86° 100° (E) 13:03:09 437.505/2401.250
BEESAT 2 28 May 13:14:50 13:18:23 27° 36° (NE) 13:21:54 435.950
EO-79 28 May 13:16:06 13:18:56 17° 269° (W) 13:21:47 145.935-145.965
SPROUT 28 May 13:21:23 13:25:32 47° 99° (E) 13:29:41 437.525
Gurwin Techsat 1B 28 May 13:24:31 13:29:34 46° 67° (ENE) 13:34:38 435.225
BEESAT 3 28 May 13:30:32 13:34:34 70° 48° (NE) 13:38:34 437.485
Oscar 19 28 May 13:31:21 13:36:33 79° 73° (ENE) 13:41:46 437.125/150
YUBILEINY 28 May 13:32:15 13:40:46 55° 270° (W) 13:49:16 435.215
AO-85 28 May 13:33:01 13:36:51 45° 237° (WSW) 13:40:51 145.980
VELOX 1 28 May 13:41:34 13:45:58 72° 103° (ESE) 13:50:21 145.980
50 SAT 28 May 13:48:26 13:51:44 45° 100° (E) 13:55:00 437.505
AO-7 28 May 13:49:21 13:56:18 31° 49° (NE) 14:03:16 .
UKube-1 28 May 13:59:25 14:03:13 29° 96° (E) 14:06:58 .
RS-15 28 May 14:04:07 14:11:14 18° 266° (W) 14:18:12 29.354- 29.394
DX 1 28 May 14:10:50 14:15:06 53° 100° (E) 14:19:20 434.975-435.025
O/OREOS (USA 219) 28 May 14:12:37 14:16:57 45° 250° (WSW) 14:21:13 437.305
BUGSAT 1 28 May 14:21:00 14:22:53 13° 272° (W) 14:24:46 437.445
NO-84 28 May 14:24:57 14:28:58 81° 27° (NNE) 14:32:39 435.350 FM
ESTCUBE 1 28 May 14:32:20 14:34:49 15° 303° (WNW) 14:37:18 437.505/2401.250
ITAMSAT 1 28 May 14:37:51 14:42:28 34° 63° (ENE) 14:47:06 435.822/435.867
BEESAT 2 28 May 14:52:24 14:56:22 52° 237° (WSW) 15:00:18 435.950
SPROUT 28 May 14:57:53 15:01:10 22° 298° (WNW) 15:04:27 437.525
Gurwin Techsat 1B 28 May 15:05:04 15:09:41 30° 266° (W) 15:14:22 435.225
BEESAT 3 28 May 15:09:10 15:11:41 16° 247° (WSW) 15:14:11 437.485
Oscar 19 28 May 15:13:11 15:16:29 17° 272° (W) 15:19:49 437.125/150
VELOX 1 28 May 15:19:11 15:21:56 16° 302° (WNW) 15:24:39 145.980
MOZHAYETS 4 28 May 15:19:42 15:21:53 13° 87° (E) 15:24:03
ITUPSAT 1 28 May 15:21:58 15:25:44 22° 92° (E) 15:29:27 437.325
50 SAT 28 May 15:22:15 15:24:16 15° 298° (WNW) 15:26:16 437.505
YUBILEINY 28 May 15:32:28 15:35:26 12° 293° (WNW) 15:38:24 435.215
UKube-1 28 May 15:35:22 15:39:15 34° 294° (WNW) 15:43:08 .
AO-7 28 May 15:40:01 15:48:19 82° 251° (WSW) 15:56:43 .
DX 1 28 May 15:47:45 15:50:58 21° 299° (WNW) 15:54:10 434.975-435.025
BEESAT 28 May 15:53:37 15:58:13 42° 99° (E) 16:02:45 436.000
NO-84 28 May 16:03:10 16:06:07 21° 228° (SW) 16:08:52 435.350 FM
ITAMSAT 1 28 May 16:17:01 16:21:52 40° 262° (W) 16:26:46 435.822/435.867
CUTE-I 28 May 16:49:23 16:52:42 17° 54° (NE) 16:56:02 437.470
MOZHAYETS 4 28 May 16:55:00 16:59:42 86° 281° (W) 17:04:20
XW-2D 28 May 16:56:28 16:58:08 13° 59° (ENE) 16:59:48 145.860 - 145.880
ITUPSAT 1 28 May 16:59:10 17:03:52 54° 291° (WNW) 17:08:33 437.325
XW-2B 28 May 17:03:59 17:06:05 14° 60° (ENE) 17:08:10 145.730 - 145.750
HO-68 28 May 17:07:08 17:11:00 16° 41° (NE) 17:14:52 435.675
NUDT-PHONESAT 28 May 17:08:05 17:09:39 12° 59° (ENE) 17:11:14 437.300
XW-2F 28 May 17:14:29 17:17:02 17° 62° (ENE) 17:19:37 145.980 - 146.000
XW-2C 28 May 17:16:58 17:19:43 19° 63° (ENE) 17:22:28 145.795 - 145.815
KAITUO 1B 28 May 17:18:41 17:21:03 16° 61° (ENE) 17:23:26 145.475/437.950
BEESAT 28 May 17:31:42 17:35:50 29° 297° (WNW) 17:39:56 436.000
KKS-1 28 May 17:33:06 17:37:16 38° 98° (E) 17:41:25 437.445
DOVE 4 28 May 17:35:35 17:39:58 53° 71° (ENE) 17:44:09 437.250
AO-7 28 May 17:36:36 17:42:23 20° 272° (W) 17:48:13 .
CUBESAT XI-V 28 May 17:46:34 17:51:14 64° 102° (ESE) 17:55:48 437.345
LilacSat-2 28 May 17:56:21 18:00:04 48° 71° (ENE) 18:03:50 437.200
STARS 28 May 17:58:08 18:02:04 31° 96° (E) 18:05:59 437.465
CUTE-I 28 May 18:26:42 18:32:01 87° 74° (ENE) 18:37:22 437.470
XW-2D 28 May 18:27:56 18:31:45 77° 258° (WSW) 18:35:38 145.860 - 145.880
MOZHAYETS 4 28 May 18:33:45 18:36:09 14° 304° (NW) 18:38:33
XW-2B 28 May 18:35:59 18:39:47 65° 258° (WSW) 18:43:38 145.730 - 145.750
XW-2A 28 May 18:36:58 18:39:08 16° 63° (ENE) 18:41:18 145.665 - 145.685
NUDT-PHONESAT 28 May 18:39:18 18:43:01 75° 257° (WSW) 18:46:48 437.300
CUTE 1.7 + AOD 2 28 May 18:39:56 18:43:28 25° 64° (ENE) 18:47:01 437.475
AAUSAT CUBESAT 2 28 May 18:45:35 18:46:33 11° 56° (NE) 18:47:31 437.432
PCSat 28 May 18:46:54 18:51:26 28° 111° (ESE) 18:56:00 145.827
XW-2F 28 May 18:47:07 18:50:49 50° 260° (W) 18:54:36 145.980 - 146.000
XW-2C 28 May 18:49:57 18:53:37 44° 261° (W) 18:57:21 145.795 - 145.815
HO-68 28 May 18:50:18 18:57:14 54° 64° (ENE) 19:04:13 435.675
KAITUO 1B 28 May 18:50:57 18:54:40 54° 260° (W) 18:58:26 145.475/437.950
KKS-1 28 May 19:09:56 19:13:42 28° 296° (WNW) 19:17:29 437.445
DOVE 4 28 May 19:14:49 19:17:58 19° 269° (W) 19:21:02 437.250
ZACube-1 28 May 19:19:57 19:22:10 14° 57° (ENE) 19:24:26 437.345
SEEDS 28 May 19:24:19 19:28:21 44° 70° (ENE) 19:32:25 437.485
CUBESAT XI-V 28 May 19:24:51 19:28:09 20° 300° (WNW) 19:31:26 437.345
LilacSat-2 28 May 19:32:06 19:34:37 17° 269° (W) 19:37:11 437.200
STARS 28 May 19:34:28 19:38:25 33° 294° (WNW) 19:42:21 437.465
CUBEBUG 2 28 May 19:39:58 19:44:00 48° 70° (ENE) 19:48:10 437.445
UWE-3 28 May 19:45:47 19:49:39 35° 67° (ENE) 19:53:38 435.000/436.395/437.385
STRAND 1 28 May 20:01:54 20:06:33 33° 96° (E) 20:11:10 437.568
XW-2A 28 May 20:08:23 20:11:35 41° 262° (W) 20:14:50 145.665 - 145.685
Oscar 11 28 May 20:09:26 20:13:10 29° 65° (ENE) 20:16:55 .
CUTE-I 28 May 20:09:44 20:12:48 15° 273° (W) 20:15:54 437.470
ISS 28 May 20:11:26 20:13:44 18° 140° (SE) 20:16:02 437.550
CUTE 1.7 + AOD 2 28 May 20:15:05 20:19:07 40° 263° (W) 20:23:12 437.475
AAUSAT CUBESAT 2 28 May 20:17:05 20:21:15 75° 75° (ENE) 20:25:27 437.432
DELFI C3 28 May 20:19:05 20:20:12 11° 57° (ENE) 20:21:19 145.870
PCSat 28 May 20:29:09 20:34:30 59° 311° (NW) 20:39:55 145.827
AO-73 28 May 20:38:11 20:42:24 63° 72° (ENE) 20:46:45 145.935
HO-68 28 May 20:38:39 20:45:13 38° 264° (W) 20:51:51 435.675
Tancredo 1 28 May 20:53:03 20:56:01 45° 152° (SSE) 20:58:59 437.200
ZACube-1 28 May 20:53:32 20:57:48 85° 256° (WSW) 21:02:13 437.345
SEEDS 28 May 21:00:55 21:04:14 22° 268° (W) 21:07:34 437.485
M-CUBED/EXP-1 PRIME 28 May 21:01:43 21:02:34 11° 95° (E) 21:03:25 437.505
CUBEBUG 2 28 May 21:17:51 21:20:56 20° 269° (W) 21:24:06 437.445
EO-88 28 May 21:20:18 21:23:29 28° 67° (ENE) 21:26:41 145.990 - 145.960
UWE-3 28 May 21:22:35 21:26:11 27° 266° (W) 21:29:54 435.000/436.395/437.385
STRAND 1 28 May 21:41:00 21:45:49 40° 294° (WNW) 21:50:36 437.568
Oscar 11 28 May 21:45:12 21:49:12 35° 264° (W) 21:53:15 .
UNISAT 6 28 May 21:46:12 21:46:48 10° 85° (E) 21:47:25 437.425
ISS 28 May 21:46:32 21:49:49 74° 158° (SSE) 21:53:07 437.550
DELFI C3 28 May 21:50:20 21:54:19 85° 74° (ENE) 21:58:19 145.870
AAUSAT CUBESAT 2 28 May 21:55:21 21:57:14 13° 273° (W) 21:59:08 437.432
LO-87 28 May 21:57:44 21:59:13 12° 60° (ENE) 22:00:43 145.935 - 145.965
SO-50 28 May 22:13:36 22:17:40 33° 119° (ESE) 22:21:45 436.795
PCSat 28 May 22:15:12 22:19:03 19° 334° (NNW) 22:22:55 145.827
AO-73 28 May 22:16:28 22:19:07 16° 272° (W) 22:21:47 145.935
FO-29 28 May 22:19:59 22:25:39 31° 94° (E) 22:31:52 435.910
ESTCUBE 1 28 May 22:22:28 22:25:40 19° 60° (ENE) 22:28:52 437.505/2401.250
Tancredo 1 28 May 22:28:40 22:31:44 62° 351° (N) 22:34:47 437.200
M-CUBED/EXP-1 PRIME 28 May 22:34:11 22:37:27 56° 294° (WNW) 22:40:38 437.505
ZACube-1 28 May 22:34:24 22:34:50 10° 276° (W) 22:35:17 437.345
PRISM 28 May 22:44:11 22:48:01 38° 98° (E) 22:51:49 437.425
TIGRISAT 28 May 22:47:22 22:51:39 36° 97° (E) 22:55:56 435.000
EO-88 28 May 22:54:04 22:57:09 25° 265° (W) 23:00:16 145.990 - 145.960
VELOX 1 28 May 23:08:32 23:11:11 16° 58° (ENE) 23:13:49 145.980
UNISAT 6 28 May 23:19:38 23:24:16 76° 103° (ESE) 23:28:57 437.425
ISS 28 May 23:23:09 23:26:26 58° 359° (N) 23:29:42 437.550
LO-87 28 May 23:28:40 23:32:12 66° 259° (W) 23:35:44 145.935 - 145.965
DELFI C3 28 May 23:28:59 23:29:41 10° 274° (W) 23:30:22 145.870
DX 1 28 May 23:37:19 23:39:02 12° 55° (NE) 23:40:45 434.975-435.025
SO-50 28 May 23:53:40 23:58:03 44° 319° (NW) 00:02:25 436.795
ESTCUBE 1 28 May 23:57:32 00:02:02 63° 258° (WSW) 00:06:34 437.505/2401.250
PCSat 29 May 00:02:30 00:04:42 12° 0° (N) 00:06:55 145.827
NANOSAT C BR1 29 May 00:03:29 00:06:13 16° 90° (E) 00:08:55 145.865
Tancredo 1 29 May 00:04:36 00:07:41 67° 13° (NNE) 00:10:44 437.200
FO-29 29 May 00:04:45 00:11:00 61° 291° (WNW) 00:18:03 435.910
POLYITAN 1 29 May 00:09:57 00:13:13 21° 92° (E) 00:16:28 437.675
RS-15 29 May 00:12:37 00:18:19 15° 91° (E) 00:24:02 29.354- 29.394
DUCHIFAT 1 29 May 00:12:39 00:15:37 18° 91° (E) 00:18:34 145.980
QB50P2 29 May 00:18:31 00:22:09 27° 94° (E) 00:25:47 145.880/145.840
SPROUT 29 May 00:18:31 00:22:42 62° 72° (ENE) 00:26:55 437.525
PRISM 29 May 00:19:51 00:23:08 24° 297° (WNW) 00:26:24 437.425
TIGRISAT 29 May 00:24:12 00:28:16 32° 294° (WNW) 00:32:23 435.000
50 SAT 29 May 00:24:38 00:27:48 34° 69° (ENE) 00:30:58 437.505
AIST 2D 29 May 00:38:22 00:41:58 81° 103° (ESE) 00:45:32 435.315
YUBILEINY 29 May 00:42:18 00:50:09 40° 85° (E) 00:58:05 435.215
VELOX 1 29 May 00:42:40 00:47:05 76° 257° (WSW) 00:51:31 145.980
EO-79 29 May 00:54:25 00:58:37 55° 100° (E) 01:02:49 145.935-145.965
UNISAT 6 29 May 00:57:31 01:00:27 17° 302° (WNW) 01:03:24 437.425
UKube-1 29 May 00:57:38 01:01:43 43° 68° (ENE) 01:05:49 .
ISS 29 May 00:59:46 01:03:05 90° 50° (NE) 01:06:22 437.550
DX 1 29 May 01:10:10 01:14:30 80° 73° (ENE) 01:18:52 434.975-435.025
BEESAT 29 May 01:29:23 01:31:44 14° 54° (NE) 01:34:05 436.000
SO-50 29 May 01:36:50 01:39:38 16° 341° (NNW) 01:42:25 436.795
Gurwin Techsat 1B 29 May 01:38:03 01:40:13 12° 85° (E) 01:42:23 435.225
NANOSAT C BR1 29 May 01:38:06 01:42:18 60° 288° (WNW) 01:46:29 145.865
Oscar 19 29 May 01:39:18 01:43:03 20° 90° (E) 01:46:46 437.125/150
Tancredo 1 29 May 01:40:27 01:43:20 37° 211° (SSW) 01:46:12 437.200
POLYITAN 1 29 May 01:45:07 01:49:14 47° 290° (WNW) 01:53:21 437.675
PCSat 29 May 01:46:26 01:50:20 19° 26° (NNE) 01:54:14 145.827
DUCHIFAT 1 29 May 01:47:28 01:51:36 53° 289° (WNW) 01:55:44 145.980
FO-29 29 May 01:51:40 01:55:05 15° 310° (NW) 01:58:41 435.910
QB50P2 29 May 01:54:06 01:58:01 36° 293° (WNW) 02:01:56 145.880/145.840
BUGSAT 1 29 May 01:55:21 01:59:29 64° 102° (ESE) 02:03:37 437.445
SPROUT 29 May 01:56:28 01:59:02 16° 271° (W) 02:01:37 437.525
50 SAT 29 May 01:58:18 02:00:47 18° 267° (W) 02:03:16 437.505
AIST 2D 29 May 02:13:48 02:14:36 11° 301° (WNW) 02:15:24 435.315
RS-15 29 May 02:16:08 02:27:49 57° 115° (ESE) 02:39:44 29.354- 29.394
MOZHAYETS 4 29 May 02:25:08 02:28:39 22° 61° (ENE) 02:32:11
EO-79 29 May 02:30:59 02:34:02 19° 299° (WNW) 02:37:04 145.935-145.965
ITUPSAT 1 29 May 02:32:31 02:37:00 42° 66° (ENE) 02:41:31 437.325
UKube-1 29 May 02:34:31 02:37:57 23° 267° (W) 02:41:23 .
ISS 29 May 02:36:35 02:39:17 24° 217° (SW) 02:41:59 437.550
YUBILEINY 29 May 02:38:08 02:46:41 57° 287° (WNW) 02:55:21 435.215
DX 1 29 May 02:49:20 02:51:16 13° 272° (W) 02:53:13 434.975-435.025
O/OREOS (USA 219) 29 May 02:52:50 02:54:32 12° 97° (E) 02:56:15 437.305
BEESAT 29 May 03:03:59 03:08:44 79° 74° (ENE) 03:13:33 436.000
Gurwin Techsat 1B 29 May 03:15:42 03:21:04 78° 105° (ESE) 03:26:22 435.225
Oscar 19 29 May 03:17:43 03:22:52 67° 289° (WNW) 03:27:57 437.125/150
CUBESAT XI-V 29 May 03:18:47 03:21:39 16° 57° (ENE) 03:24:30 437.345
SO-50 29 May 03:19:56 03:21:56 13° 6° (N) 03:23:55 436.795
PCSat 29 May 03:29:26 03:34:51 61° 50° (NE) 03:40:13 145.827
BUGSAT 1 29 May 03:31:48 03:34:24 16° 300° (WNW) 03:37:01 437.445
AO-7 29 May 03:37:14 03:43:59 26° 91° (E) 03:50:40 .
AO-85 29 May 03:52:39 03:55:17 17° 114° (ESE) 03:57:52 145.980
MOZHAYETS 4 29 May 04:00:55 04:05:27 55° 260° (W) 04:10:02
ITUPSAT 1 29 May 04:10:50 04:14:57 28° 265° (W) 04:19:07 437.325
ITAMSAT 1 29 May 04:24:50 04:29:55 51° 100° (E) 04:35:00 435.822/435.867
RS-15 29 May 04:28:17 04:40:27 63° 322° (NW) 04:52:44 29.354- 29.394
O/OREOS (USA 219) 29 May 04:28:36 04:33:12 87° 116° (ESE) 04:37:49 437.305
KKS-1 29 May 04:34:59 04:39:20 60° 71° (ENE) 04:43:44 437.445
YUBILEINY 29 May 04:41:00 04:45:54 16° 314° (NW) 04:50:52 435.215
BEESAT 29 May 04:44:25 04:47:07 15° 272° (W) 04:49:50 436.000
CUBESAT XI-V 29 May 04:53:42 04:58:25 82° 259° (WSW) 05:03:10 437.345
Gurwin Techsat 1B 29 May 04:56:38 05:00:26 20° 304° (WNW) 05:04:13 435.225
STARS 29 May 04:58:33 05:02:44 47° 69° (ENE) 05:06:56 437.465
Oscar 19 29 May 04:58:59 05:01:15 13° 309° (NW) 05:03:30 437.125/150
SO-50 29 May 05:00:14 05:03:57 24° 31° (NNE) 05:07:40 436.795
BEESAT 3 29 May 05:01:37 05:05:00 27° 117° (ESE) 05:08:25 437.485
PCSat 29 May 05:13:24 05:17:54 27° 250° (WSW) 05:22:21 145.827
